FW2782 Weather Reports


Display with metric or nautical units.
time (UTC)temp
F
wind
direction
speed
MPH
gust
MPH
rain 1hr
in
rain 24hr
in
rain mn
in
humidity
%
barometer
mb
20260505124508 72 157 0.0 5.0 0.00 0.69 0.55 69 1011.3
20260505123008 71 157 1.0 7.0 0.00 0.69 0.55 70 1011.5
20260505121600 71 47 0.0 5.0 0.00 0.69 0.55 71 1011.6
20260505114556 69 143 0.0 4.0 0.00 0.69 0.55 71 1011.9
20260505113054 69 94 1.0 4.0 0.00 0.69 0.55 72 1011.8
20260505111546 68 140 1.0 3.0 0.01 0.69 0.55 85 1011.9
20260505101554 62 335 1.0 4.0 0.11 0.67 0.54 91 1012.4
20260505100054 62 347 1.0 3.0 0.02 0.56 0.44 89 1012.3
20260505094533 62 64 0.0 2.0 0.01 0.56 0.43 89 1012.2
20260505093030 62 74 0.0 2.0 0.00 0.56 0.43 89 1012.3
20260505091529 61 84 0.0 3.0 0.00 0.56 0.43 90 1012.2
20260505090026 61 91 0.0 3.0 0.00 0.56 0.43 91 1012.2
20260505084526 60 105 1.0 4.0 0.00 0.56 0.43 92 1012.3
20260505083025 60 132 0.0 2.0 0.00 0.56 0.43 93 1012.1
20260505081521 59 121 1.0 4.0 0.00 0.56 0.43 94 1012.2
20260505080019 58 36 0.0 2.0 0.00 0.56 0.43 95 1012.2
20260505074516 58 135 0.0 0.0 0.00 0.56 0.43 95 1012.2
20260505073031 58 148 0.0 0.0 0.00 0.56 0.43 96 1012.2
20260505071514 57 148 0.0 0.0 0.00 0.56 0.43 96 1012.1
20260505070014 56 147 0.0 0.0 0.00 0.57 0.43 96 1011.9
20260505064517 56 147 0.0 0.0 0.00 0.57 0.43 96 1011.9
20260505063010 56 147 0.0 0.0 0.00 0.57 0.43 96 1011.9
20260505061519 55 147 0.0 1.0 0.00 0.57 0.43 96 1011.8
20260505060008 55 147 0.0 2.0 0.00 0.57 0.43 96 1011.8
20260505054506 55 148 0.0 2.0 0.00 0.57 0.43 96 1011.6
20260505053009 55 159 0.0 2.0 0.00 0.57 0.43 96 1011.6
20260505051515 55 159 0.0 0.0 0.00 0.57 0.43 95 1011.4
20260505041508 54 159 0.0 2.0 0.05 0.57 0.43 95 1011.3
20260505040003 55 158 0.0 3.0 0.11 0.57 0.43 95 1011.1
20260505034501 55 194 0.0 3.0 0.19 0.57 0.43 95 1011.2
20260505033104 55 204 0.0 4.0 0.20 0.56 0.42 95 1011.2
20260505031558 55 153 1.0 6.0 0.17 0.54 0.38 95 1011.0
20260505030057 54 46 1.0 4.0 0.10 0.47 0.31 95 1011.4
20260505024556 54 163 1.0 5.0 0.02 0.39 0.24 95 1011.7
20260505023056 54 179 1.0 7.0 0.01 0.37 0.21 95 1011.7
20260505021553 54 117 1.0 4.0 0.01 0.37 0.21 95 1011.7
20260505020055 54 144 0.0 3.0 0.01 0.37 0.21 94 1011.9
20260505014557 54 138 2.0 4.0 0.01 0.37 0.21 94 1012.0
20260505013053 54 181 0.0 2.0 0.03 0.36 0.20 94 1011.8
20260505011552 54 146 0.0 5.0 0.04 0.36 0.20 94 1012.0
20260505010107 54 167 0.0 5.0 0.04 0.36 0.20 94 1012.2
20260505004546 54 105 1.0 8.0 0.05 0.36 0.20 94 1012.4
20260505003048 54 176 2.0 8.0 0.02 0.33 0.17 94 1012.6
20260505001544 54 136 2.0 7.0 0.09 0.32 0.17 94 1012.4
20260505000047 54 142 1.0 9.0 0.11 0.32 0.17 94 1012.5
20260504234541 54 135 2.0 10.0 0.12 0.31 0.16 93 1012.4
20260504233039 54 337 2.0 8.0 0.15 0.31 0.15 93 1012.5
20260504231533 55 33 2.0 8.0 0.08 0.24 0.08 93 1013.0
20260504230040 55 46 1.0 6.0 0.06 0.21 0.06 93 1013.4
20260504224528 55 177 2.0 8.0 0.03 0.19 0.03 92 1013.2
20260504223025 55 78 1.0 10.0 0.01 0.16 0.00 92 1013.8
20260504221539 55 134 2.0 8.0 0.01 0.16 0.00 91 1013.8
20260504220023 55 178 2.0 10.0 0.02 0.16 0.16 91 1014.1
20260504214519 55 355 3.0 12.0 0.03 0.16 0.16 91 1013.6
20260504213017 55 173 2.0 11.0 0.02 0.15 0.15 91 1013.9
20260504211514 55 91 4.0 14.0 0.02 0.15 0.15 90 1014.4
20260504210015 56 59 2.0 8.0 0.01 0.13 0.13 91 1014.4
20260504204610 56 355 2.0 8.0 0.00 0.13 0.13 91 1014.7
20260504203011 56 17 1.0 10.0 0.01 0.13 0.13 91 1014.9
20260504201507 56 107 4.0 9.0 0.01 0.13 0.13 91 1014.9
20260504200007 56 57 1.0 5.0 0.01 0.13 0.13 91 1015.1
20260504194507 56 340 1.0 10.0 0.01 0.13 0.13 92 1015.1
20260504193005 56 55 1.0 6.0 0.00 0.12 0.12 92 1015.0
20260504191505 57 163 1.0 7.0 0.00 0.12 0.12 91 1014.6
20260504190006 57 57 1.0 4.0 0.00 0.12 0.12 92 1014.6
20260504184504 57 61 1.0 5.0 0.01 0.12 0.12 92 1014.6
20260504183004 57 225 2.0 11.0 0.04 0.12 0.12 91 1014.7
20260504181508 57 71 2.0 8.0 0.09 0.12 0.12 91 1014.6
20260504180002 57 5 2.0 10.0 0.09 0.12 0.12 90 1014.8
20260504174600 58 195 3.0 14.0 0.09 0.11 0.11 91 1015.0
20260504173059 59 156 3.0 9.0 0.06 0.08 0.08 89 1015.1
20260504171559 59 131 2.0 7.0 0.00 0.02 0.02 87 1015.3